TimeCEST,TemperatureF,Dew PointF,Humidity,Sea Level PressureIn,VisibilityMPH,Wind Direction,Wind SpeedMPH,Gust SpeedMPH,PrecipitationIn,Events,Conditions,WindDirDegrees,DateUTC
12:25 AM,57.2,57.2,100,30.21,3.7,WSW,4.6,-,N/A,,Overcast,240,2013-10-08 22:25:00
12:55 AM,57.2,57.2,100,30.21,-9999.0,WSW,3.5,-,N/A,,Drizzle,250,2013-10-08 22:55:00
1:25 AM,57.2,57.2,100,30.21,-9999.0,WSW,2.3,-,N/A,,Overcast,240,2013-10-08 23:25:00
1:55 AM,57.2,57.2,100,30.18,-9999.0,WSW,3.5,-,N/A,,Drizzle,240,2013-10-08 23:55:00
2:25 AM,57.2,57.2,100,30.18,1.9,SSE,3.5,-,N/A,,Overcast,160,2013-10-09 00:25:00
2:55 AM,57.2,57.2,100,30.18,1.8,South,3.5,-,N/A,,Overcast,180,2013-10-09 00:55:00
3:25 AM,57.2,57.2,100,30.15,1.7,South,4.6,-,N/A,,Mostly Cloudy,180,2013-10-09 01:25:00
3:55 AM,57.2,57.2,100,30.15,1.8,SSW,4.6,-,N/A,,Mostly Cloudy,200,2013-10-09 01:55:00
4:25 AM,57.2,55.4,94,30.15,1.8,SSW,4.6,-,N/A,Rain,Light Rain,200,2013-10-09 02:25:00
4:55 AM,55.4,55.4,100,30.12,-9999.0,SSW,5.8,-,N/A,,Mostly Cloudy,200,2013-10-09 02:55:00
5:25 AM,55.4,55.4,100,30.12,-9999.0,SW,4.6,-,N/A,,Overcast,220,2013-10-09 03:25:00
5:55 AM,57.2,55.4,94,30.12,-9999.0,SSW,5.8,-,N/A,,Overcast,210,2013-10-09 03:55:00
6:25 AM,57.2,57.2,100,30.09,-9999.0,SW,6.9,-,N/A,,Overcast,220,2013-10-09 04:25:00
6:55 AM,57.2,57.2,100,30.09,-9999.0,SW,8.1,-,N/A,,Overcast,220,2013-10-09 04:55:00
7:25 AM,57.2,57.2,100,30.09,1.6,WSW,6.9,-,N/A,,Overcast,240,2013-10-09 05:25:00
7:55 AM,57.2,57.2,100,30.09,0.9,SW,5.8,-,N/A,,Overcast,230,2013-10-09 05:55:00
8:25 AM,57.2,57.2,100,30.06,0.8,SW,8.1,-,N/A,,Overcast,220,2013-10-09 06:25:00
8:55 AM,57.2,57.2,100,30.06,0.6,WSW,8.1,-,N/A,,Overcast,240,2013-10-09 06:55:00
9:25 AM,57.2,57.2,100,30.06,1.1,WSW,6.9,-,N/A,,Overcast,250,2013-10-09 07:25:00
9:55 AM,57.2,57.2,100,30.06,-9999.0,West,4.6,-,N/A,,Mostly Cloudy,270,2013-10-09 07:55:00
10:25 AM,59.0,57.2,94,30.06,5.6,WSW,8.1,-,N/A,,Mostly Cloudy,250,2013-10-09 08:25:00
10:55 AM,59.0,55.4,88,30.06,6.2,West,8.1,-,N/A,,Overcast,270,2013-10-09 08:55:00
11:25 AM,59.0,53.6,82,30.06,6.2,WSW,8.1,-,N/A,,Overcast,250,2013-10-09 09:25:00
11:38 AM,59.0,53.6,82,30.04,6.2,WSW,9.2,-,N/A,,Overcast,250,2013-10-09 09:38:00
11:55 AM,59.0,53.6,82,30.04,6.2,West,6.9,-,N/A,,Overcast,260,2013-10-09 09:55:00
12:25 PM,59.0,53.6,82,30.04,6.2,West,8.1,-,N/A,,Mostly Cloudy,260,2013-10-09 10:25:00
12:55 PM,59.0,53.6,82,30.01,6.2,West,10.4,-,N/A,,Overcast,260,2013-10-09 10:55:00
1:25 PM,59.0,51.8,77,30.01,6.2,WSW,12.7,-,N/A,,Mostly Cloudy,250,2013-10-09 11:25:00
1:55 PM,60.8,51.8,72,29.98,6.2,WSW,11.5,-,N/A,,Mostly Cloudy,250,2013-10-09 11:55:00
2:25 PM,59.0,50.0,72,29.98,6.2,West,12.7,-,N/A,,Mostly Cloudy,270,2013-10-09 12:25:00
2:55 PM,59.0,48.2,67,29.98,6.2,West,12.7,-,N/A,,Mostly Cloudy,270,2013-10-09 12:55:00
3:25 PM,57.2,48.2,72,29.95,6.2,West,13.8,-,N/A,,Overcast,260,2013-10-09 13:25:00
3:26 PM,57.2,48.2,72,29.95,6.2,West,13.8,-,N/A,,Overcast,260,2013-10-09 13:26:00
3:55 PM,57.2,48.2,72,29.95,6.2,WSW,11.5,-,N/A,,Overcast,250,2013-10-09 13:55:00
4:25 PM,59.0,46.4,63,29.92,6.2,WSW,13.8,-,N/A,,Mostly Cloudy,250,2013-10-09 14:25:00
4:55 PM,57.2,44.6,63,29.92,6.2,West,12.7,-,N/A,,Overcast,260,2013-10-09 14:55:00
5:25 PM,57.2,46.4,67,29.92,6.2,West,12.7,-,N/A,,Overcast,260,2013-10-09 15:25:00
5:55 PM,55.4,48.2,77,29.89,6.2,WSW,10.4,-,N/A,,Mostly Cloudy,240,2013-10-09 15:55:00
6:18 PM,55.4,48.2,77,29.89,6.2,WSW,10.4,-,N/A,,Overcast,240,2013-10-09 16:18:00
6:25 PM,55.4,48.2,77,29.89,6.2,WSW,10.4,-,N/A,,Mostly Cloudy,240,2013-10-09 16:25:00
6:55 PM,55.4,48.2,77,29.86,6.2,SW,9.2,-,N/A,,Overcast,230,2013-10-09 16:55:00
7:25 PM,55.4,48.2,77,29.86,6.2,SW,8.1,-,N/A,,Overcast,230,2013-10-09 17:25:00
7:55 PM,53.6,50.0,88,29.86,5.0,WSW,9.2,-,N/A,Rain,Light Rain,240,2013-10-09 17:55:00
8:25 PM,51.8,51.8,100,29.83,6.2,SW,10.4,-,N/A,,Mostly Cloudy,230,2013-10-09 18:25:00
8:55 PM,51.8,51.8,100,29.83,6.2,SW,8.1,-,N/A,,Overcast,220,2013-10-09 18:55:00
9:25 PM,51.8,51.8,100,29.83,6.2,SSW,6.9,-,N/A,,Mostly Cloudy,210,2013-10-09 19:25:00
9:55 PM,51.8,51.8,100,29.80,5.0,SW,9.2,-,N/A,,Mostly Cloudy,220,2013-10-09 19:55:00
10:10 PM,51.8,51.8,100,29.80,4.3,SW,8.1,-,N/A,,Mostly Cloudy,230,2013-10-09 20:10:00
10:25 PM,51.8,48.2,88,29.80,6.2,WNW,12.7,24.2,N/A,,Mostly Cloudy,290,2013-10-09 20:25:00
10:55 PM,50.0,46.4,87,29.83,6.2,NW,8.1,-,N/A,,Overcast,310,2013-10-09 20:55:00
11:25 PM,48.2,44.6,87,29.80,6.2,NNW,11.5,-,N/A,,Mostly Cloudy,330,2013-10-09 21:25:00
11:55 PM,46.4,44.6,93,29.80,6.2,NW,4.6,-,N/A,,Mostly Cloudy,310,2013-10-09 21:55:00